"Period start","avg(HW err(1)/warn(2) (#))","avg(Visibility (m))","avg(Weather code (#))","avg(Precip intensity (mm/h))","min(HW err(1)/warn(2) (#))","max(HW err(1)/warn(2) (#))","std(HW err(1)/warn(2) (#))","med(HW err(1)/warn(2) (#))","min(Visibility (m))","max(Visibility (m))","std(Visibility (m))","med(Visibility (m))","min(Weather code (#))","max(Weather code (#))","std(Weather code (#))","med(Weather code (#))","min(Precip intensity (mm/h))","max(Precip intensity (mm/h))","std(Precip intensity (mm/h))","med(Precip intensity (mm/h))"
2013-08-23 00:00:00,2,47910,0,0.00,2,2,0,2,41476,50000,3014,49579,0,0,0,0,0.00,0.00,0.00,0.00
2013-08-23 00:10:00,2,47824,0,0.00,2,2,0,2,42275,50000,2445,48520,0,0,0,0,0.00,0.00,0.00,0.00
2013-08-23 00:20:00,2,49824,0,0.00,2,2,0,2,48758,50000,371,50000,0,0,0,0,0.00,0.00,0.00,0.00
2013-08-23 00:30:00,2,47516,0,0.00,2,2,0,2,40351,50000,3139,48952,0,0,0,0,0.00,0.00,0.00,0.00
2013-08-23 00:40:00,2,44606,0,0.00,2,2,0,2,37522,50000,4286,44268,0,0,0,0,0.00,0.00,0.00,0.00
2013-08-23 00:50:00,2,48691,0,0.00,2,2,0,2,44671,50000,2085,50000,0,0,0,0,0.00,0.00,0.00,0.00
2013-08-23 01:00:00,2,49627,0,0.00,2,2,0,2,46267,50000,1120,50000,0,0,0,0,0.00,0.00,0.00,0.00
2013-08-23 01:10:00,2,49848,0,0.00,2,2,0,2,48477,50000,457,50000,0,0,0,0,0.00,0.00,0.00,0.00
2013-08-23 01:20:00,2,48621,0,0.00,2,2,0,2,45086,50000,1820,50000,0,0,0,0,0.00,0.00,0.00,0.00
2013-08-23 01:30:00,2,50000,0,0.00,2,2,0,2,50000,50000,0,50000,0,0,0,0,0.00,0.00,0.00,0.00
2013-08-23 01:40:00,2,49956,0,0.00,2,2,0,2,49565,50000,130,50000,0,0,0,0,0.00,0.00,0.00,0.00
2013-08-23 01:50:00,2,49986,0,0.00,2,2,0,2,49860,50000,42,50000,0,0,0,0,0.00,0.00,0.00,0.00
2013-08-23 02:00:00,2,49705,0,0.00,2,2,0,2,47837,50000,644,50000,0,0,0,0,0.00,0.00,0.00,0.00
2013-08-23 02:10:00,2,48672,0,0.00,2,2,0,2,43167,50000,2148,50000,0,0,0,0,0.00,0.00,0.00,0.00
2013-08-23 02:20:00,2,47756,0,0.00,2,2,0,2,39242,50000,3427,50000,0,0,0,0,0.00,0.00,0.00,0.00
2013-08-23 02:30:00,2,48436,0,0.00,2,2,0,2,44084,50000,2049,49900,0,0,0,0,0.00,0.00,0.00,0.00
2013-08-23 02:40:00,2,48473,0,0.00,2,2,0,2,40430,50000,2908,50000,0,0,0,0,0.00,0.00,0.00,0.00
2013-08-23 02:50:00,2,42939,0,0.00,2,2,0,2,29521,49673,6483,44916,0,0,0,0,0.00,0.00,0.00,0.00
2013-08-23 03:00:00,2,49416,0,0.00,2,2,0,2,44653,50000,1594,50000,0,0,0,0,0.00,0.00,0.00,0.00
2013-08-23 03:10:00,2,49945,0,0.00,2,2,0,2,49686,50000,112,50000,0,0,0,0,0.00,0.00,0.00,0.00
2013-08-23 03:20:00,2,48972,0,0.00,2,2,0,2,45300,50000,1688,50000,0,0,0,0,0.00,0.00,0.00,0.00
2013-08-23 03:30:00,2,49110,0,0.00,2,2,0,2,44479,50000,1844,50000,0,0,0,0,0.00,0.00,0.00,0.00
2013-08-23 03:40:00,2,45579,0,0.00,2,2,0,2,32979,50000,6288,50000,0,0,0,0,0.00,0.00,0.00,0.00
2013-08-23 03:50:00,2,47167,0,0.00,2,2,0,2,39881,50000,3651,50000,0,0,0,0,0.00,0.00,0.00,0.00
2013-08-23 04:00:00,2,49388,0,0.00,2,2,0,2,46184,50000,1270,50000,0,0,0,0,0.00,0.00,0.00,0.00
2013-08-23 04:10:00,2,48066,0,0.00,2,2,0,2,43327,50000,2408,48916,0,0,0,0,0.00,0.00,0.00,0.00
2013-08-23 04:20:00,2,47573,0,0.00,2,2,0,2,35742,50000,4170,49470,0,0,0,0,0.00,0.00,0.00,0.00
2013-08-23 04:30:00,2,50000,0,0.00,2,2,0,2,50000,50000,0,50000,0,0,0,0,0.00,0.00,0.00,0.00
2013-08-23 04:40:00,2,49460,0,0.00,2,2,0,2,47684,50000,788,50000,0,0,0,0,0.00,0.00,0.00,0.00
2013-08-23 04:50:00,2,50000,0,0.00,2,2,0,2,50000,50000,0,50000,0,0,0,0,0.00,0.00,0.00,0.00
2013-08-23 05:00:00,2,49330,0,0.00,2,2,0,2,45118,50000,1505,50000,0,0,0,0,0.00,0.00,0.00,0.00
2013-08-23 05:10:00,2,48696,0,0.00,2,2,0,2,45547,50000,1992,50000,0,0,0,0,0.00,0.00,0.00,0.00
2013-08-23 05:20:00,2,38235,0,0.00,2,2,0,2,9831,50000,17142,48991,0,0,0,0,0.00,0.00,0.00,0.00
2013-08-23 05:30:00,2,47630,0,0.00,2,2,0,2,33781,50000,4954,50000,0,0,0,0,0.00,0.00,0.00,0.00
2013-08-23 05:40:00,2,49884,0,0.00,2,2,0,2,49087,50000,276,50000,0,0,0,0,0.00,0.00,0.00,0.00
2013-08-23 05:50:00,2,50000,0,0.00,2,2,0,2,50000,50000,0,50000,0,0,0,0,0.00,0.00,0.00,0.00
2013-08-23 06:00:00,2,50000,0,0.00,2,2,0,2,50000,50000,0,50000,0,0,0,0,0.00,0.00,0.00,0.00
2013-08-23 06:10:00,2,18618,0,0.00,2,2,0,2,8861,37342,7883,16364,0,0,0,0,0.00,0.00,0.00,0.00
2013-08-23 06:20:00,2,42919,18,0.05,2,2,0,2,14977,50000,11823,49318,0,51,23,0,0.00,0.35,0.11,0.00
2013-08-23 06:30:00,2,49410,0,0.00,2,2,0,2,46362,50000,1196,50000,0,0,0,0,0.00,0.00,0.00,0.00
2013-08-23 06:40:00,2,47026,0,0.00,2,2,0,2,38639,50000,3618,48618,0,0,0,0,0.00,0.00,0.00,0.00
2013-08-23 06:50:00,2,43610,0,0.00,2,2,0,2,9573,50000,12864,50000,0,0,0,0,0.00,0.00,0.00,0.00
2013-08-23 07:00:00,2,24165,16,0.10,2,2,0,2,5306,50000,17553,14072,0,41,20,0,0.00,0.55,0.18,0.00
2013-08-23 07:10:00,2,49782,0,0.00,2,2,0,2,47825,50000,652,50000,0,0,0,0,0.00,0.00,0.00,0.00
2013-08-23 07:20:00,2,44124,0,0.00,2,2,0,2,16018,50000,11131,49729,0,0,0,0,0.00,0.00,0.00,0.00
2013-08-23 07:30:00,2,43926,0,0.00,2,2,0,2,18982,50000,9795,48886,0,0,0,0,0.00,0.00,0.00,0.00
2013-08-23 07:40:00,2,50000,0,0.00,2,2,0,2,50000,50000,0,50000,0,0,0,0,0.00,0.00,0.00,0.00
2013-08-23 07:50:00,2,50000,0,0.00,2,2,0,2,50000,50000,0,50000,0,0,0,0,0.00,0.00,0.00,0.00
2013-08-23 08:00:00,2,47198,0,0.00,2,2,0,2,37921,50000,4391,50000,0,0,0,0,0.00,0.00,0.00,0.00
2013-08-23 08:10:00,2,46893,0,0.00,2,2,0,2,38706,50000,4359,49534,0,0,0,0,0.00,0.00,0.00,0.00
2013-08-23 08:20:00,2,27989,0,0.00,2,2,0,2,10561,40317,11188,32580,0,0,0,0,0.00,0.00,0.00,0.00
2013-08-23 08:30:00,2,42062,0,0.00,2,2,0,2,32569,50000,6084,43088,0,0,0,0,0.00,0.00,0.00,0.00
2013-08-23 08:40:00,2,24434,0,0.00,2,2,0,2,7481,50000,13246,23244,0,0,0,0,0.00,0.00,0.00,0.00
2013-08-23 08:50:00,2,8488,37,0.86,2,2,0,2,2608,25688,7592,4462,10,61,19,41,0.00,1.80,0.73,1.10
2013-08-23 09:00:00,2,12289,31,0.34,2,2,0,2,4516,23676,6608,10236,0,61,29,31,0.00,1.80,0.53,0.15
2013-08-23 09:10:00,2,11773,28,0.12,2,2,0,2,7063,28662,6403,8505,0,61,29,20,0.00,0.35,0.15,0.03
2013-08-23 09:20:00,2,22748,39,0.28,2,2,0,2,7649,46914,15499,13042,0,61,26,51,0.00,0.90,0.28,0.25
2013-08-23 09:30:00,2,48651,0,0.00,2,2,0,2,41825,50000,2633,50000,0,0,0,0,0.00,0.00,0.00,0.00
2013-08-23 09:40:00,2,38103,0,0.00,2,2,0,2,8860,50000,17425,49440,0,0,0,0,0.00,0.00,0.00,0.00
2013-08-23 09:50:00,2,7456,28,0.20,2,2,0,2,4504,10321,1819,7580,0,41,19,40,0.00,0.85,0.25,0.12
2013-08-23 10:00:00,2,43307,14,0.00,2,2,0,2,15334,50000,11245,49301,0,41,18,5,0.00,0.00,0.00,0.00
2013-08-23 10:10:00,2,21720,12,0.01,2,2,0,2,6886,50000,15449,14803,0,41,19,0,0.00,0.05,0.02,0.00
2013-08-23 10:20:00,2,42633,16,0.01,2,2,0,2,11062,50000,13038,50000,0,61,25,0,0.00,0.05,0.02,0.00
2013-08-23 10:30:00,2,49878,0,0.00,2,2,0,2,48784,50000,365,50000,0,0,0,0,0.00,0.00,0.00,0.00
2013-08-23 10:40:00,2,25044,12,0.01,2,2,0,2,3985,50000,18248,20186,0,41,19,0,0.00,0.10,0.03,0.00
2013-08-23 10:50:00,2,10849,43,1.57,2,2,0,2,4413,45283,11662,6888,0,61,28,61,0.00,5.80,2.02,0.50
2013-08-23 11:00:00,2,29736,21,0.06,2,2,0,2,7071,50000,15384,27826,0,52,25,0,0.00,0.30,0.11,0.00
2013-08-23 11:10:00,2,18169,0,0.00,2,2,0,2,4379,42004,12696,13132,0,0,0,0,0.00,0.00,0.00,0.00
2013-08-23 11:20:00,2,47827,0,0.00,2,2,0,2,41918,50000,3090,50000,0,0,0,0,0.00,0.00,0.00,0.00
2013-08-23 11:30:00,2,47613,0,0.00,2,2,0,2,36063,50000,4700,50000,0,0,0,0,0.00,0.00,0.00,0.00
2013-08-23 11:40:00,2,49568,0,0.00,2,2,0,2,46951,50000,951,50000,0,0,0,0,0.00,0.00,0.00,0.00
2013-08-23 11:50:00,2,50000,0,0.00,2,2,0,2,50000,50000,0,50000,0,0,0,0,0.00,0.00,0.00,0.00
2013-08-23 12:00:00,2,50000,0,0.00,2,2,0,2,50000,50000,0,50000,0,0,0,0,0.00,0.00,0.00,0.00
2013-08-23 12:10:00,2,50000,0,0.00,2,2,0,2,50000,50000,0,50000,0,0,0,0,0.00,0.00,0.00,0.00
2013-08-23 12:20:00,2,50000,0,0.00,2,2,0,2,50000,50000,0,50000,0,0,0,0,0.00,0.00,0.00,0.00
2013-08-23 12:30:00,2,50000,0,0.00,2,2,0,2,50000,50000,0,50000,0,0,0,0,0.00,0.00,0.00,0.00
2013-08-23 12:40:00,2,50000,0,0.00,2,2,0,2,50000,50000,0,50000,0,0,0,0,0.00,0.00,0.00,0.00
2013-08-23 12:50:00,2,50000,0,0.00,2,2,0,2,50000,50000,0,50000,0,0,0,0,0.00,0.00,0.00,0.00
2013-08-23 13:00:00,2,49924,0,0.00,2,2,0,2,49239,50000,228,50000,0,0,0,0,0.00,0.00,0.00,0.00
2013-08-23 13:10:00,2,50000,0,0.00,2,2,0,2,50000,50000,0,50000,0,0,0,0,0.00,0.00,0.00,0.00
2013-08-23 13:20:00,2,50000,0,0.00,2,2,0,2,50000,50000,0,50000,0,0,0,0,0.00,0.00,0.00,0.00
2013-08-23 13:30:00,2,50000,0,0.00,2,2,0,2,50000,50000,0,50000,0,0,0,0,0.00,0.00,0.00,0.00
2013-08-23 13:40:00,2,50000,0,0.00,2,2,0,2,50000,50000,0,50000,0,0,0,0,0.00,0.00,0.00,0.00
2013-08-23 13:50:00,2,50000,0,0.00,2,2,0,2,50000,50000,0,50000,0,0,0,0,0.00,0.00,0.00,0.00
2013-08-23 14:00:00,2,50000,0,0.00,2,2,0,2,50000,50000,0,50000,0,0,0,0,0.00,0.00,0.00,0.00
2013-08-23 14:10:00,2,50000,0,0.00,2,2,0,2,50000,50000,0,50000,0,0,0,0,0.00,0.00,0.00,0.00
2013-08-23 14:20:00,2,50000,0,0.00,2,2,0,2,50000,50000,0,50000,0,0,0,0,0.00,0.00,0.00,0.00
2013-08-23 14:30:00,2,50000,0,0.00,2,2,0,2,50000,50000,0,50000,0,0,0,0,0.00,0.00,0.00,0.00
2013-08-23 14:40:00,2,50000,0,0.00,2,2,0,2,50000,50000,0,50000,0,0,0,0,0.00,0.00,0.00,0.00
2013-08-23 14:50:00,2,50000,0,0.00,2,2,0,2,50000,50000,0,50000,0,0,0,0,0.00,0.00,0.00,0.00
2013-08-23 15:00:00,2,50000,0,0.00,2,2,0,2,50000,50000,0,50000,0,0,0,0,0.00,0.00,0.00,0.00
2013-08-23 15:10:00,2,50000,0,0.00,2,2,0,2,50000,50000,0,50000,0,0,0,0,0.00,0.00,0.00,0.00
2013-08-23 15:20:00,2,50000,0,0.00,2,2,0,2,50000,50000,0,50000,0,0,0,0,0.00,0.00,0.00,0.00
2013-08-23 15:30:00,2,50000,0,0.00,2,2,0,2,50000,50000,0,50000,0,0,0,0,0.00,0.00,0.00,0.00
2013-08-23 15:40:00,2,50000,0,0.00,2,2,0,2,50000,50000,0,50000,0,0,0,0,0.00,0.00,0.00,0.00
2013-08-23 15:50:00,2,50000,0,0.00,2,2,0,2,50000,50000,0,50000,0,0,0,0,0.00,0.00,0.00,0.00
2013-08-23 16:00:00,2,50000,0,0.00,2,2,0,2,50000,50000,0,50000,0,0,0,0,0.00,0.00,0.00,0.00
2013-08-23 16:10:00,2,50000,0,0.00,2,2,0,2,50000,50000,0,50000,0,0,0,0,0.00,0.00,0.00,0.00
2013-08-23 16:20:00,2,50000,0,0.00,2,2,0,2,50000,50000,0,50000,0,0,0,0,0.00,0.00,0.00,0.00
2013-08-23 16:30:00,2,50000,0,0.00,2,2,0,2,50000,50000,0,50000,0,0,0,0,0.00,0.00,0.00,0.00
2013-08-23 16:40:00,2,50000,0,0.00,2,2,0,2,50000,50000,0,50000,0,0,0,0,0.00,0.00,0.00,0.00
2013-08-23 16:50:00,2,50000,0,0.00,2,2,0,2,50000,50000,0,50000,0,0,0,0,0.00,0.00,0.00,0.00
2013-08-23 17:00:00,2,50000,0,0.00,2,2,0,2,50000,50000,0,50000,0,0,0,0,0.00,0.00,0.00,0.00
2013-08-23 17:10:00,2,50000,0,0.00,2,2,0,2,50000,50000,0,50000,0,0,0,0,0.00,0.00,0.00,0.00
2013-08-23 17:20:00,2,50000,0,0.00,2,2,0,2,50000,50000,0,50000,0,0,0,0,0.00,0.00,0.00,0.00
2013-08-23 17:30:00,2,50000,0,0.00,2,2,0,2,50000,50000,0,50000,0,0,0,0,0.00,0.00,0.00,0.00
2013-08-23 17:40:00,2,50000,0,0.00,2,2,0,2,50000,50000,0,50000,0,0,0,0,0.00,0.00,0.00,0.00
2013-08-23 17:50:00,2,49959,0,0.00,2,2,0,2,49590,50000,123,50000,0,0,0,0,0.00,0.00,0.00,0.00
2013-08-23 18:00:00,2,50000,0,0.00,2,2,0,2,50000,50000,0,50000,0,0,0,0,0.00,0.00,0.00,0.00
2013-08-23 18:10:00,2,50000,0,0.00,2,2,0,2,50000,50000,0,50000,0,0,0,0,0.00,0.00,0.00,0.00
2013-08-23 18:20:00,2,50000,0,0.00,2,2,0,2,50000,50000,0,50000,0,0,0,0,0.00,0.00,0.00,0.00
2013-08-23 18:30:00,2,50000,0,0.00,2,2,0,2,50000,50000,0,50000,0,0,0,0,0.00,0.00,0.00,0.00
2013-08-23 18:40:00,2,50000,0,0.00,2,2,0,2,50000,50000,0,50000,0,0,0,0,0.00,0.00,0.00,0.00
2013-08-23 18:50:00,2,50000,0,0.00,2,2,0,2,50000,50000,0,50000,0,0,0,0,0.00,0.00,0.00,0.00
2013-08-23 19:00:00,2,50000,0,0.00,2,2,0,2,50000,50000,0,50000,0,0,0,0,0.00,0.00,0.00,0.00
2013-08-23 19:10:00,2,50000,0,0.00,2,2,0,2,50000,50000,0,50000,0,0,0,0,0.00,0.00,0.00,0.00
2013-08-23 19:20:00,2,50000,0,0.00,2,2,0,2,50000,50000,0,50000,0,0,0,0,0.00,0.00,0.00,0.00
2013-08-23 19:30:00,2,50000,0,0.00,2,2,0,2,50000,50000,0,50000,0,0,0,0,0.00,0.00,0.00,0.00
2013-08-23 19:40:00,2,50000,0,0.00,2,2,0,2,50000,50000,0,50000,0,0,0,0,0.00,0.00,0.00,0.00
2013-08-23 19:50:00,2,50000,0,0.00,2,2,0,2,50000,50000,0,50000,0,0,0,0,0.00,0.00,0.00,0.00
2013-08-23 20:00:00,2,50000,0,0.00,2,2,0,2,50000,50000,0,50000,0,0,0,0,0.00,0.00,0.00,0.00
2013-08-23 20:10:00,2,50000,0,0.00,2,2,0,2,50000,50000,0,50000,0,0,0,0,0.00,0.00,0.00,0.00
2013-08-23 20:20:00,2,50000,0,0.00,2,2,0,2,50000,50000,0,50000,0,0,0,0,0.00,0.00,0.00,0.00
2013-08-23 20:30:00,2,50000,0,0.00,2,2,0,2,50000,50000,0,50000,0,0,0,0,0.00,0.00,0.00,0.00
2013-08-23 20:40:00,2,49965,0,0.00,2,2,0,2,49648,50000,106,50000,0,0,0,0,0.00,0.00,0.00,0.00
2013-08-23 20:50:00,2,50000,0,0.00,2,2,0,2,50000,50000,0,50000,0,0,0,0,0.00,0.00,0.00,0.00
2013-08-23 21:00:00,2,49798,0,0.00,2,2,0,2,47983,50000,605,50000,0,0,0,0,0.00,0.00,0.00,0.00
2013-08-23 21:10:00,2,50000,0,0.00,2,2,0,2,50000,50000,0,50000,0,0,0,0,0.00,0.00,0.00,0.00
2013-08-23 21:20:00,2,49884,0,0.00,2,2,0,2,48837,50000,349,50000,0,0,0,0,0.00,0.00,0.00,0.00
2013-08-23 21:30:00,2,50000,0,0.00,2,2,0,2,50000,50000,0,50000,0,0,0,0,0.00,0.00,0.00,0.00
2013-08-23 21:40:00,2,50000,0,0.00,2,2,0,2,50000,50000,0,50000,0,0,0,0,0.00,0.00,0.00,0.00
2013-08-23 21:50:00,2,50000,0,0.00,2,2,0,2,50000,50000,0,50000,0,0,0,0,0.00,0.00,0.00,0.00
2013-08-23 22:00:00,2,49778,0,0.00,2,2,0,2,47782,50000,665,50000,0,0,0,0,0.00,0.00,0.00,0.00
2013-08-23 22:10:00,2,49573,0,0.00,2,2,0,2,47268,50000,832,50000,0,0,0,0,0.00,0.00,0.00,0.00
2013-08-23 22:20:00,2,50000,0,0.00,2,2,0,2,50000,50000,0,50000,0,0,0,0,0.00,0.00,0.00,0.00
2013-08-23 22:30:00,2,50000,0,0.00,2,2,0,2,50000,50000,0,50000,0,0,0,0,0.00,0.00,0.00,0.00
2013-08-23 22:40:00,2,49670,0,0.00,2,2,0,2,48335,50000,554,50000,0,0,0,0,0.00,0.00,0.00,0.00
2013-08-23 22:50:00,2,49461,0,0.00,2,2,0,2,45514,50000,1343,50000,0,0,0,0,0.00,0.00,0.00,0.00
2013-08-23 23:00:00,2,50000,0,0.00,2,2,0,2,50000,50000,0,50000,0,0,0,0,0.00,0.00,0.00,0.00
2013-08-23 23:10:00,2,49950,0,0.00,2,2,0,2,49496,50000,151,50000,0,0,0,0,0.00,0.00,0.00,0.00
2013-08-23 23:20:00,2,49728,0,0.00,2,2,0,2,47451,50000,761,50000,0,0,0,0,0.00,0.00,0.00,0.00
2013-08-23 23:30:00,2,49766,0,0.00,2,2,0,2,48094,50000,572,50000,0,0,0,0,0.00,0.00,0.00,0.00
2013-08-23 23:40:00,2,49455,0,0.00,2,2,0,2,45645,50000,1311,50000,0,0,0,0,0.00,0.00,0.00,0.00
2013-08-23 23:50:00,2,49958,0,0.00,2,2,0,2,49575,50000,128,50000,0,0,0,0,0.00,0.00,0.00,0.00
